Torna al catalogo

CENTISPACE-1 S14

AttivoNavigazioneLEO
NORAD 62583·PAYLOAD·🇨🇳 China

Lanciato Jan 13, 2025 da Yellow Sea Launch Area

Loading…

Prossimi Passaggi (prossime 24 ore)

TLE

AggiornatoSource: Space-Track

Epoca: Sep 14, 2026, 14:59 UTC

1 62583U 25007J   26257.62454327 -.00000052  00000-0  83480-4 0  9998
2 62583  54.9862 339.8428 0009066 267.3039  92.6879 13.80623039 87065

Traccia CENTISPACE-1 S14 in tempo reale con AllMySat

Download on the App Store